Regional Weather Roundup
Issued by NWS

Home | Current Version | Previous Version | Graphics & Text | Print | Product List | Glossary On
Versions: 1 2 3 4 5 6 7 8 9 10 11 12 13 14 15 16 17 18 19 20 21 22 23 24 25 26 27 28 29 30 31 32 33 34 35 36 37 38 39 40 41 42 43 44 45 46 47 48 49 50
000
ASUS43 KFSD 301202
RWRSD

WEATHER ROUNDUP FOR SOUTH DAKOTA
NATIONAL WEATHER SERVICE SIOUX FALLS SD
700 AM CDT TUE MAY 30 2017

NOTE: "FAIR" INDICATES FEW OR NO CLOUDS BELOW 12,000 FEET WITH NO
SIGNIFICANT WEATHER AND/OR OBSTRUCTIONS TO VISIBILITY.


SDZ001>005-009-010-012>017-301300-
NORTHWEST AND NORTH CENTRAL SOUTH DAKOTA

CITY           SKY/WX    TMP DP  RH WIND       PRES   REMARKS
BUFFALO          N/A     41  31  67 NW8       30.06R
FAITH            N/A     44  33  65 W9        30.09S
MOBRIDGE       CLEAR     42  36  79 N6        30.05R
$$

SDZ012>016-024>037-041>051-057-063-072>074-301300-
SOUTHWEST AND SOUTH CENTRAL SOUTH DAKOTA

CITY           SKY/WX    TMP DP  RH WIND       PRES   REMARKS
RAPID CTY ARPT CLEAR     45  30  55 NW8       30.13R
PIERRE         CLEAR     42  34  73 W7        30.06R
CUSTER         CLEAR     41  25  53 CALM      30.18R
ELLSWORTH AFB  CLEAR     40  31  70 W5        30.12R
PHILIP         CLEAR     40  34  79 W9        30.10S
PINE RIDGE     CLEAR     35  34  96 CALM      30.14S
SPEARFISH      FAIR      43  28  56 SW5       30.15S
WINNER         FAIR      47  36  65 N5        30.09R
$$

SDZ004>011-016>023-039-040-301300-
NORTHEAST SOUTH DAKOTA

CITY           SKY/WX    TMP DP  RH WIND       PRES   REMARKS
ABERDEEN       SUNNY     47  37  68 NW10      30.03R
WATERTOWN      SUNNY     48  41  76 NW12      29.99R
BROOKINGS      PTSUNNY   48  42  80 W7        30.01R
SISSETON         N/A     49  42  77 NW14      29.96S
$$

SDZ017-020-022-023-036>040-048>070-301300-
SOUTHEAST SOUTH DAKOTA

CITY           SKY/WX    TMP DP  RH WIND       PRES   REMARKS
SIOUX FALLS    MOSUNNY   51  43  74 W8        30.01R
HURON          CLEAR     44  39  82 NW7       30.04R
CHAMBERLAIN    CLEAR     46  40  79 SW5       30.06S
MITCHELL       CLEAR     47  39  74 W7        30.05R
YANKTON        CLEAR     49  43  80 NW6       30.05R
$$

ABBREVIATIONS USED IN REMARKS
   TC - TEMPERATURE IN CELSIUS
  WCI - WIND CHILL INDEX
   HX - HEAT INDEX
  VSB - VISIBILITY




USA.gov is the U.S. government's official web portal to all federal, state and local government web resources and services.